Weather History for KTAD - July, 2013

Change the Weather History Date:

Sunday, July 14, 2013

  Actual Average Record
Temperature  
Mean Temperature 75 °F 74 °F  
Max Temperature 89 °F 89 °F 100 °F (2003)
Min Temperature 61 °F 59 °F 50 °F (1973)
Degree Days  
Heating Degree Days 0 0  
Month to date heating degree days 0 0  
Since 1 June heating degree days 21 39  
Since 1 July heating degree days 0 0  
Cooling Degree Days 10 9  
Month to date cooling degree days 150 120  
Year to date cooling degree days 494 289  
Since 1 June cooling degree days 431 261  
Growing Degree Days 25 (Base 50)    
Moisture  
Dew Point 58 °F    
Average Humidity 51    
Maximum Humidity 73    
Minimum Humidity 29    
Precipitation  
Precipitation 0.62 in 0.07 in 0.62 in (2013)
Month to date precipitation 0.78 0.87  
Year to date precipitation 3.80 6.80  
Sea Level Pressure  
Sea Level Pressure 30.06 in    
Wind  
Wind Speed 11 mph (NW)    
Max Wind Speed 25 mph    
Max Gust Speed 38 mph    
Visibility 8 miles    
Events Rain , Thunderstorm    
T = Trace of Precipitation, MM = Missing Value Source: NWS Daily Summary

Daily Weather History Graph

Daily Weather History Graph

Search for Another Location

Airport or City:

Trip Planner

Search our weather history database for the weather conditions in past years. The results will help you decide how hot, cold, wet, or windy it might be!

Date:

Astronomy

Jul. 14, 2013 Rise Set
Actual Time 5:48 AM MDT 8:17 PM MDT
Civil Twilight 5:18 AM MDT 8:47 PM MDT
Nautical Twilight 4:40 AM MDT 9:25 PM MDT
Astronomical Twilight 3:59 AM MDT 10:06 PM MDT
Moon 11:58 AM MDT (7/14) 11:41 PM MDT (7/14)
Length of Visible Light 15h 29m
Length of Day
14h 29m
Waxing Crescent, 35% of the Moon is Illuminated
Jul 14
Waxing Crescent
Jul 15
First Quarter
Jul 22
Full
Jul 29
Last Quarter
Aug 6
New

Hourly Weather History & Observations

Time (MDT) Temp. Heat Index Dew Point Humidity Pressure Visibility Wind Dir Wind Speed Gust Speed Precip Events Conditions
12:54 AM 72.0 °F - 57.0 °F 59% 29.90 in 10.0 mi WNW 8.1 mph - N/A   Clear
1:54 AM 69.1 °F - 55.9 °F 63% 29.93 in 10.0 mi WNW 5.8 mph - N/A   Partly Cloudy
2:54 AM 69.1 °F - 55.9 °F 63% 29.92 in 10.0 mi NW 5.8 mph - N/A   Partly Cloudy
3:54 AM 66.0 °F - 55.9 °F 70% 29.92 in 10.0 mi NW 5.8 mph - N/A   Clear
4:54 AM 64.0 °F - 55.0 °F 73% 29.93 in 10.0 mi West 5.8 mph - N/A   Clear
5:54 AM 63.0 °F - 53.1 °F 70% 29.94 in 10.0 mi West 5.8 mph - N/A   Clear
6:54 AM 64.0 °F - 55.0 °F 73% 29.96 in 10.0 mi WNW 3.5 mph - N/A   Clear
7:54 AM 71.1 °F - 54.0 °F 55% 29.93 in 10.0 mi WSW 5.8 mph - N/A   Clear
8:54 AM 75.0 °F - 52.0 °F 44% 29.91 in 10.0 mi NW 8.1 mph - N/A   Clear
9:54 AM 80.1 °F 79.9 °F 53.1 °F 39% 29.91 in 10.0 mi NNW 6.9 mph - N/A   Clear
10:54 AM 82.9 °F - 51.1 °F 33% 29.89 in 10.0 mi NNE 10.4 mph - N/A   Clear
11:54 AM 87.1 °F - 51.1 °F 29% 29.88 in 10.0 mi NE 16.1 mph 21.9 mph N/A   Clear
12:54 PM 87.1 °F - 52.0 °F 30% 29.88 in 10.0 mi NNE 13.8 mph 28.8 mph N/A   Clear
1:54 PM 88.0 °F - 52.0 °F 29% 29.88 in 10.0 mi NE 16.1 mph 25.3 mph N/A   Scattered Clouds
2:54 PM 84.0 °F - 52.0 °F 33% 29.88 in 10.0 mi ENE 16.1 mph 26.5 mph N/A   Overcast
3:54 PM 87.1 °F - 51.1 °F 29% 29.87 in 10.0 mi NE 17.3 mph 25.3 mph N/A   Partly Cloudy
4:54 PM 82.0 °F - 52.0 °F 35% 29.92 in 10.0 mi North 16.1 mph - N/A   Overcast
5:07 PM 75.2 °F - 55.4 °F 50% 30.17 in 10.0 mi WNW 10.4 mph - N/A   Overcast
5:54 PM 72.0 °F - 59.0 °F 64% 29.96 in 10.0 mi West 15.0 mph 19.6 mph 0.00 in Thunderstorm Overcast
6:12 PM 71.6 °F - 57.2 °F 60% 30.19 in 10.0 mi WNW 19.6 mph 26.5 mph N/A   Overcast
6:54 PM 68.0 °F - 57.0 °F 68% 29.96 in 10.0 mi West 18.4 mph - N/A   Partly Cloudy
7:40 PM 68.0 °F - 55.4 °F 64% 30.17 in 10.0 mi West 23.0 mph 27.6 mph N/A Thunderstorm Partly Cloudy
7:50 PM 66.2 °F - 57.2 °F 73% 30.17 in 10.0 mi West 18.4 mph 29.9 mph N/A Thunderstorm Mostly Cloudy
7:54 PM 68.0 °F - 57.0 °F 68% 29.94 in 10.0 mi West 17.3 mph 27.6 mph N/A Thunderstorm Mostly Cloudy
8:22 PM 66.2 °F - 57.2 °F 73% 30.20 in 10.0 mi North 8.1 mph - 0.00 in Rain , Thunderstorm Light Rain
8:40 PM 64.4 °F - 59.0 °F 83% 30.23 in 1.8 mi NW 10.4 mph - 0.14 in Rain , Thunderstorm Heavy Rain
8:54 PM 63.0 °F - 60.1 °F 90% 29.99 in 1.8 mi West 10.4 mph - 0.30 in Rain , Thunderstorm Light Thunderstorms and Rain
8:56 PM 62.6 °F - 60.8 °F 94% 30.22 in 3.0 mi WNW 10.4 mph - 0.00 in Rain , Thunderstorm Light Thunderstorms and Rain
9:00 PM 62.6 °F - 60.8 °F 94% 30.21 in 8.0 mi WNW 9.2 mph - 0.01 in Rain , Thunderstorm Light Thunderstorms and Rain
9:07 PM 62.6 °F - 60.8 °F 94% 30.21 in 10.0 mi NW 9.2 mph - 0.01 in Rain , Thunderstorm Light Rain
9:25 PM 64.4 °F - 60.8 °F 88% 30.23 in 10.0 mi North 10.4 mph - 0.02 in Thunderstorm Overcast
9:33 PM 64.4 °F - 62.6 °F 94% 30.23 in 10.0 mi North 5.8 mph - 0.02 in Thunderstorm Overcast
9:37 PM 64.4 °F - 62.6 °F 94% 30.24 in 10.0 mi NNW 4.6 mph - 0.02 in   Overcast
9:54 PM 64.0 °F - 62.1 °F 93% 30.00 in 10.0 mi WNW 5.8 mph - 0.02 in   Overcast
10:08 PM 64.4 °F - 62.6 °F 94% 30.24 in 10.0 mi NW 4.6 mph - N/A Thunderstorm Overcast
10:36 PM 64.4 °F - 62.6 °F 94% 30.23 in 1.8 mi NW 25.3 mph 38.0 mph 0.15 in Rain , Thunderstorm Heavy Thunderstorms and Rain
10:42 PM 64.4 °F - 60.8 °F 88% 30.24 in 1.5 mi Calm Calm - 0.20 in Rain Light Rain
10:45 PM 64.4 °F - 60.8 °F 88% 30.24 in 2.5 mi Calm Calm - 0.20 in Rain , Thunderstorm Light Rain
10:52 PM 64.4 °F - 60.8 °F 88% 30.25 in 10.0 mi North 6.9 mph - 0.20 in Thunderstorm Overcast
10:54 PM 64.9 °F - 61.0 °F 87% 29.99 in 10.0 mi North 5.8 mph - 0.20 in Thunderstorm Overcast
10:59 PM 64.4 °F - 62.6 °F 94% 30.25 in 10.0 mi North 5.8 mph - N/A   Overcast
11:42 PM 64.4 °F - 62.6 °F 94% 30.24 in 4.0 mi North 6.9 mph - 0.02 in Rain Rain
11:49 PM 64.4 °F - 62.6 °F 94% 30.25 in 3.0 mi NNE 8.1 mph - 0.03 in Rain Rain
11:54 PM 64.9 °F - 64.0 °F 97% 29.98 in 4.0 mi NNE 8.1 mph - 0.03 in Rain Light Rain